FENGYUN 1C DEB

Satellite information

Favourite Embed

Satellite Type and Status

DEBRISIN ORBIT

Key statistics

Satellite FENGYUN 1C DEB at a glance.

Uptime

9494

Days in orbit

Revolutions

≈ 14.3

Per day

Orbit

SSO

Sun Synchronous Orbit

Inclination

99.2

Latest

Satellite identification and parameters

Extended collection of information and parameters for FENGYUN 1C DEB.

Object identification

Identified? True

Debris? True

Object name: FENGYUN 1C DEB

International designator: 1999-025GN

Object number (NORAD): 29892

Object ID (CCSDS): 29892

Country: PEOPLES REPUBLIC OF CHINA (PRC)

Current information (Y/N): Y

RCS size: SMALL

Orbital parameters

Period: 100.835 minutes

Inclination: 99.1752 deg

SMA: 7176.328 km

Apoapsis: 943.312 km

Periapsis: 653.074 km

RAAN: 262.424 deg

Eccentricy: 0.0202219

Argument of periapsis: 212.6462 deg

Mean anomaly: 280.2278 deg

Mean motion: 14.28069477 rev/day

Mean motion (dot): 0.00014635 rev/day2

B* drag term: 0.0047416 1/REarth

Two-line elements (TLE)

Creation date: May 7, 2025, 3:14 a.m.

Reference frame: TEME

Reference center: EARTH

Epoch: May 6, 2025, 8:45 p.m. UTC

TLE line 0: 0 FENGYUN 1C DEB

TLE line 1: 1 29892U 99025GN 25126.86514029 .00014635 00000-0 47416-2 0 9999

TLE line 2: 2 29892 99.1752 262.4240 0202219 212.6462 280.2278 14.28069477935075

Live tracking on map

Real-time ground track for satellite FENGYUN 1C DEB.

In-orbit conjunctions

A list of the most updated potential collisions computed for object FENGYUN 1C DEB.

Target Orbit TCA Probability of collision Miss distance Type
FENGYUN 1C DEB SSO 2024-11-11 08:19:37 0.0006471275 594.0 (m) DEBRIS
FENGYUN 1C DEB SSO 2024-07-23 13:46:48 0.0001881656 176.0 (m) DEBRIS

Associated space launch

Chinese polar orbiting meteorological satellite

FENGYUN 1C DEB was lifted into orbit during the mission ‘Long March 4B | Feng Yun 1C’, on board a Long March 4B space rocket.

The launch took place on May 10, 1999, 1:33 a.m. from Launch Complex 7.

For more information about the launch, click the button.

Launch to space Long March 4B | Feng Yun 1C
Long March 4B | Feng Yun 1C

Agency: N/A

Status: Launch Successful

Launch date: May 10, 1999, 1:33 a.m. UTC

Rocket: Long March 4B

Launch pad: Launch Complex 7

Location: Taiyuan Satellite Launch Center, People's Republic of China

...

Latest news about this satellite

There are no fresh news available about this satellite. Check back as we update our databases every day.


Newsletter sign-up

Weekly statistics, charts and insights to help you stay on top of the space industry.